sat.trackr.live / text

‹ back to catalog

CONNECTA IOT-3

NORAD 60475 · 2024-149H

PAYLOAD ACTIVE UNKNOWN

§ Identity

Operator
Country
TURK
Launch date
2024-08-16
Launch site
AFWTR
Launch vehicle
Mass (kg)
RCS (m²)

External: N2YO · Heavens-Above · Gunter

§ Orbital elements

Epoch: 2026-09-22T16:38:26.996928Z

Period
94.47 min
Inclination
97.3664°
Eccentricity
0.0001397
Mean motion
15.24268320 rev/d
Perigee alt
492.0 km
Apogee alt
493.9 km
Semi-major
6,871.1 km
B*
2.4843e-4
RAAN
340.0626°
Arg perigee
294.7733°
Mean anomaly
65.3359°
Rev number
11,665

§ Raw data

CONNECTA IOT-31 60475U 24149H   26265.69336802  .00005995  00000+0  24843-3 0  99912 60475  97.3664 340.0626 0001397 294.7733  65.3359 15.24268320116658

JSON: /api/v1/satellites/60475 · /tle

For live sub-satellite position, see the globe view (requires WebGL).

§ Visibility from observer

Set your observer location to see the next 7 days of passes ≥ 10°. The values pass through the URL so the page stays shareable.

No JS? Fill the form by hand. The geolocation button needs JavaScript.

§ Radio — SatNOGS DB

ModeDescriptionDownlinkUplink
GMSK Mode U - GMSK 4k8 AX.25 TLM 401.530 MHz
FM S-band telemetry 2.240 GHz
LoRa Mode U - LoRa (inactive) 869.525 MHz

3 transmitters · refreshed weekly from db.satnogs.org